Current weather by "City, St" or "zip code"  
 

Current Conditions: Perry-Foley Airport, FL

Fair


84.0 F

Last Updated on Oct 21 2021, 1:55 pm EDT
Humidity: 45%
Wind Speed: N 0.0 mph
Barometer 30.16 in
Dewpoint: 60.6 F
Visibility: 10.00 mi
Precip: --
Heat Index: 84 F
Wind Chill: NA
Current conditions at:

Perry-Foley Airport, FL (KFPY)

Lat: 30.07081 Lon: 83.58154

Local Radar Image active severe weather and emergency alerts image image weather storm and storm spotter reports image weather observation monitoring service image
Local
Radar
Active
Alerts
Storm Reports Obs
Monitoring

Sign-up For Email & Text Message Weather Alert Notification Services



Advertise Here

Observation History for Perry-Foley Airport, FL


Time Wind
(mph)
Vis
(mi)
Weather Precip (in) Temperature (F) Relative
Humidity
Wind
Chill
(F)
Heat
Index
(F)
Pressure
Air Dwpt altimeter
(in)
sea level
(mb)
Rmks
1:55 pm EDT N 0.0 10.00 Fair -- 84.0 60.6 45% NA 84 30.16 M
12:55 pm EDT S 5.8 10.00 Fair -- 84.0 61.2 46% NA 84 30.19 M
11:55 am EDT SE 3.5 10.00 Fair -- 82.0 61.7 51% NA 83 30.21 M
11:35 am EDT SE 6.9 10.00 Fair -- 81.0 61.3 52% NA 82 30.21 M
10:55 am EDT SE 4.6 10.00 Fair -- 80.0 62.4 56% NA 81 30.21 M
9:55 am EDT E 3.5 10.00 Fair -- 74.0 63.9 70% NA NA 30.21 M
9:35 am EDT E 3.5 10.00 Fair -- 71.0 63.7 77% NA NA 30.21 M
8:55 am EDT E 3.5 10.00 Fair -- 68.0 63.3 86% NA NA 30.20 M
7:55 am EDT N 0.0 10.00 Fair -- 63.0 61.0 93% NA NA 30.18 M
7:35 am EDT N 0.0 10.00 Fair -- 62.0 60.8 94% NA NA 30.18 M
6:55 am EDT N 0.0 10.00 Fair -- 64.0 60.6 90% NA NA 30.16 M
5:55 am EDT E 3.5 10.00 Fair -- 64.0 61.0 89% NA NA 30.15 M
4:55 am EDT N 0.0 10.00 Fair -- 64.0 60.6 89% NA NA 30.16 M
4:35 am EDT N 0.0 10.00 Fair -- 63.0 60.1 90% NA NA 30.16 M
3:55 am EDT N 0.0 10.00 Fair -- 64.0 60.8 88% NA NA 30.17 M
3:35 am EDT N 0.0 10.00 Fair -- 65.0 61.0 88% NA NA 30.18 M
2:55 am EDT N 0.0 10.00 Fair -- 63.0 60.1 92% NA NA 30.18 M
2:35 am EDT N 0.0 10.00 Fair -- 64.0 60.8 90% NA NA 30.18 M
1:55 am EDT N 0.0 10.00 Fair -- 65.0 61.3 89% NA NA 30.20 M
1:35 am EDT N 0.0 10.00 Fair -- 65.0 61.7 88% NA NA 30.20 M
12:55 am EDT E 3.5 10.00 Fair -- 67.0 60.8 81% NA NA 30.21 M
11:55 pm EDT N 0.0 10.00 Fair -- 65.0 60.8 87% NA NA 30.22 M
10:55 pm EDT N 0.0 10.00 Fair -- 64.0 61.3 92% NA NA 30.21 M
9:55 pm EDT N 0.0 5.00 Fog/Mist -- 65.0 61.2 88% NA NA 30.20 M

Regional Weather Observation


Thomasville Regional Airport, GA (KTVI)

Fair
81.0 F

Suwannee County Airport, FL (K24J)

A Few Clouds
82.0 F

Valdosta Regional Airport, GA (KVLD)

A Few Clouds
84.0 F

Tallahassee International Airport, FL (KTLH)

Mostly Cloudy
82.0 F

Moody Air Force Base, GA (KVAD)

Fair
83.0 F

Quincy Municipal Airport, FL (K2J9)

Partly Cloudy
84.0 F

Advertise Here


Advertise Here